This is the latest recevied weather packets stored in our database for station/object DB0LS-15. If no packets are shown the sender has not sent any weather packets the latest 10 day(s).
| Time | Temp. | Humidity | Pressure | Rain* | Wind** | Luminosity | Snow |
|---|---|---|---|---|---|---|---|
| 1778031361 | 12.22° C | 98% | 986.9 hPa | 0 mm | - | - | - |
| 1778030757 | 12.22° C | 97% | 986.9 hPa | 0 mm | - | - | - |
| 1778030153 | 12.22° C | 97% | 987 hPa | 0 mm | - | - | - |
| 1778029549 | 12.22° C | 97% | 986.9 hPa | 0.51 mm | - | - | - |
| 1778028946 | 12.22° C | 97% | 986.7 hPa | 0.51 mm | - | - | - |
| 1778028342 | 12.22° C | 96% | 986.4 hPa | 1.02 mm | - | - | - |
| 1778027738 | 12.22° C | 96% | 986.1 hPa | 1.27 mm | - | - | - |
| 1778027134 | 12.22° C | 96% | 986 hPa | 1.27 mm | - | - | - |
| 1778026531 | 12.22° C | 96% | 986.1 hPa | 1.52 mm | - | - | - |
| 1778025927 | 12.22° C | 96% | 986 hPa | 1.27 mm | - | - | - |
| 1778025323 | 12.22° C | 96% | 986.9 hPa | 2.29 mm | - | - | - |
| 1778024719 | 12.22° C | 96% | 987.3 hPa | 9.4 mm | - | - | - |
| 1778024116 | 12.22° C | 97% | 987.5 hPa | 10.41 mm | - | - | - |
| 1778023572 | 12.22° C | 97% | 987.7 hPa | 12.19 mm | - | - | - |
| 1778022968 | 12.78° C | 97% | 988.1 hPa | 13.46 mm | - | - | - |
| 1778022364 | 12.78° C | 97% | 988.5 hPa | 13.72 mm | - | - | - |
| 1778021761 | 12.78° C | 97% | 988.6 hPa | 14.99 mm | - | - | - |
| 1778021157 | 13.33° C | 97% | 989.2 hPa | 9.65 mm | - | - | - |
| 1778020553 | 12.78° C | 96% | 988.5 hPa | 8.13 mm | - | - | - |
| 1778019949 | 12.78° C | 96% | 988 hPa | 6.35 mm | - | - | - |
| 1778019346 | 13.33° C | 95% | 988.2 hPa | 4.83 mm | - | - | - |
| 1778018742 | 13.33° C | 94% | 988.2 hPa | 4.32 mm | - | - | - |
| 1778018138 | 13.89° C | 93% | 988.3 hPa | 1.78 mm | - | - | - |
| 1778017534 | 13.89° C | 92% | 988.7 hPa | 0 mm | - | - | - |
| 1778016930 | 13.89° C | 92% | 988.7 hPa | 0 mm | - | - | - |
* Rain latest hour (hover to see other rain measurements)
** Current wind speed in m/s (hover to see current wind gust speed)